Willmar, MN

11:55 PM CDT on October 18, 2017 (GMT -0500)
Willmar

Weather History for KBDH - June, 2012

Change the Weather History Date:

Wednesday, June 13, 2012

  Actual Average (KBBB) Record (KBBB)
Temperature  
Mean Temperature 64 °F -  
Max Temperature 73 °F 80 °F 96 °F (1987)
Min Temperature 55 °F 56 °F 40 °F (1969)
Degree Days  
Heating Degree Days 1    
Growing Degree Days 14 (Base 50)    
Moisture  
Dew Point 51 °F    
Average Humidity 64    
Maximum Humidity 94    
Minimum Humidity 47    
Precipitation  
Precipitation 0.09 in - - ()
Sea Level Pressure  
Sea Level Pressure 29.98 in    
Wind  
Wind Speed 8 mph (SSE)    
Max Wind Speed 21 mph    
Max Gust Speed 28 mph    
Visibility 10 miles    
Events Rain    
Averages and records for this station are not official NWS values.
T = Trace of Precipitation, MM = Missing Value Source: NWS Daily Summary

Daily Weather History Graph

Daily Weather History Graph

Search for Another Location

Airport or City:

Trip Planner

Search our weather history database for the weather conditions in past years. The results will help you decide how hot, cold, wet, or windy it might be!

Date:

Astronomy

Jun. 13, 2012 Rise Set
Actual Time 5:32 AM CDT 9:08 PM CDT
Civil Twilight 4:55 AM CDT 9:46 PM CDT
Nautical Twilight 4:05 AM CDT 10:36 PM CDT
Astronomical Twilight 2:59 AM CDT 11:42 PM CDT
Moon 1:58 AM CDT (6/13) 3:45 PM CDT (6/13)
Length of Visible Light 16h 51m
Length of Day
15h 36m
Waning Crescent, 29% of the Moon is Illuminated
Jun 13
Waning Crescent
Jun 19
New
Jun 26
First Quarter
Jul 3
Full
Jul 10
Last Quarter

Hourly Weather History & Observations

Time (CDT) Temp. Dew Point Humidity Pressure Visibility Wind Dir Wind Speed Gust Speed Precip Events Conditions
12:14 AM 57.2 °F 46.4 °F 67% 30.12 in 10.0 mi SE 3.5 mph - N/A   Clear
12:34 AM 57.2 °F 46.4 °F 67% 30.12 in 10.0 mi SE 4.6 mph - N/A   Clear
12:54 AM 57.2 °F 44.6 °F 63% 30.13 in 10.0 mi SSE 4.6 mph - N/A   Clear
1:14 AM 57.2 °F 44.6 °F 63% 30.13 in 10.0 mi SE 4.6 mph - N/A   Clear
1:34 AM 55.4 °F 44.6 °F 67% 30.12 in 10.0 mi SE 4.6 mph - N/A   Clear
1:54 AM 57.2 °F 44.6 °F 63% 30.12 in 10.0 mi SSE 4.6 mph - N/A   Clear
2:14 AM 57.2 °F 44.6 °F 63% 30.10 in 10.0 mi SE 6.9 mph - N/A   Clear
2:34 AM 57.2 °F 44.6 °F 63% 30.10 in 10.0 mi SE 5.8 mph - N/A   Clear
2:54 AM 57.2 °F 44.6 °F 63% 30.09 in 10.0 mi SE 5.8 mph - N/A   Clear
3:14 AM 57.2 °F 44.6 °F 63% 30.08 in 10.0 mi SE 5.8 mph - N/A   Clear
3:34 AM 57.2 °F 44.6 °F 63% 30.07 in 10.0 mi SE 6.9 mph - N/A   Clear
3:54 AM 57.2 °F 44.6 °F 63% 30.06 in 10.0 mi SE 8.1 mph - N/A   Clear
4:14 AM 57.2 °F 44.6 °F 63% 30.05 in 10.0 mi SE 9.2 mph - N/A   Clear
4:34 AM 57.2 °F 44.6 °F 63% 30.05 in 10.0 mi SE 8.1 mph - N/A   Clear
4:54 AM 57.2 °F 44.6 °F 63% 30.06 in 10.0 mi SE 8.1 mph - N/A   Clear
5:14 AM 59.0 °F 44.6 °F 59% 30.05 in 10.0 mi SSE 8.1 mph - N/A   Clear
5:34 AM 60.8 °F 44.6 °F 55% 30.08 in 10.0 mi South 3.5 mph - N/A   Clear
6:14 AM 59.0 °F 44.6 °F 59% 30.08 in 10.0 mi Calm Calm - N/A   Clear
6:34 AM 59.0 °F 44.6 °F 59% 30.08 in 10.0 mi SSE 5.8 mph - N/A   Clear
6:54 AM 59.0 °F 46.4 °F 63% 30.08 in 10.0 mi Calm Calm - N/A   Clear
7:14 AM 59.0 °F 46.4 °F 63% 30.08 in 10.0 mi Calm Calm - N/A   Clear
7:34 AM 60.8 °F 46.4 °F 59% 30.09 in 10.0 mi SSW 3.5 mph - N/A   Clear
7:54 AM 59.0 °F 48.2 °F 67% 30.09 in 10.0 mi Calm Calm - N/A Rain Light Rain
8:14 AM 57.2 °F 51.8 °F 82% 30.09 in 10.0 mi SSW 3.5 mph - N/A Rain Rain
8:34 AM 57.2 °F 51.8 °F 82% 30.09 in 10.0 mi SSE 4.6 mph - N/A Rain Light Rain
8:54 AM 55.4 °F 51.8 °F 88% 30.08 in 10.0 mi SSE 6.9 mph - 0.02 in Rain Rain
9:14 AM 55.4 °F 53.6 °F 94% 30.07 in 10.0 mi SSE 9.2 mph - 0.01 in Rain Light Rain
9:34 AM 55.4 °F 53.6 °F 94% 30.07 in 10.0 mi SSE 10.4 mph 16.1 mph 0.02 in Rain Light Rain
9:54 AM 57.2 °F 53.6 °F 88% 30.06 in 10.0 mi SSE 9.2 mph - 0.03 in Rain Light Rain
10:14 AM 57.2 °F 53.6 °F 88% 30.05 in 10.0 mi SE 10.4 mph - 0.01 in Rain Light Rain
10:54 AM 57.2 °F 53.6 °F 88% 30.03 in 10.0 mi SE 10.4 mph - 0.03 in Rain Light Rain
11:14 AM 57.2 °F 53.6 °F 88% 30.01 in 10.0 mi SE 13.8 mph - N/A Rain Light Rain
11:34 AM 57.2 °F 53.6 °F 88% 30.00 in 10.0 mi SE 16.1 mph - N/A Rain Light Rain
12:14 PM 60.8 °F 53.6 °F 77% 30.00 in 10.0 mi ESE 11.5 mph 17.3 mph N/A Rain Light Rain
12:34 PM 59.0 °F 53.6 °F 82% 30.00 in 10.0 mi ESE 10.4 mph - 0.01 in Rain Light Rain
12:54 PM 60.8 °F 55.4 °F 82% 29.99 in 10.0 mi ESE 10.4 mph - 0.01 in   Mostly Cloudy
1:14 PM 62.6 °F 55.4 °F 77% 29.97 in 10.0 mi SE 12.7 mph - N/A   Mostly Cloudy
1:34 PM 64.4 °F 55.4 °F 73% 29.96 in 10.0 mi SE 17.3 mph 20.7 mph N/A   Scattered Clouds
1:54 PM 66.2 °F 57.2 °F 73% 29.94 in 10.0 mi SE 18.4 mph 24.2 mph N/A   Clear
2:14 PM 68.0 °F 55.4 °F 64% 29.93 in 10.0 mi SE 18.4 mph 27.6 mph N/A   Clear
2:34 PM 69.8 °F 55.4 °F 60% 29.91 in 10.0 mi SE 20.7 mph 26.5 mph N/A   Clear
2:54 PM 71.6 °F 55.4 °F 57% 29.91 in 10.0 mi SSE 17.3 mph 26.5 mph N/A   Clear
3:14 PM 69.8 °F 55.4 °F 60% 29.91 in 10.0 mi SSE 9.2 mph 26.5 mph N/A   Scattered Clouds
3:34 PM 69.8 °F 53.6 °F 56% 29.91 in 10.0 mi South 8.1 mph 17.3 mph N/A   Scattered Clouds
3:54 PM 69.8 °F 55.4 °F 60% 29.91 in 10.0 mi South 6.9 mph - N/A   Scattered Clouds
4:14 PM 68.0 °F 55.4 °F 64% 29.91 in 10.0 mi South 5.8 mph 17.3 mph N/A   Mostly Cloudy
4:34 PM 68.0 °F 57.2 °F 68% 29.90 in 10.0 mi SSE 10.4 mph 17.3 mph N/A   Mostly Cloudy
4:54 PM 69.8 °F 55.4 °F 60% 29.90 in 10.0 mi SSE 12.7 mph 21.9 mph N/A   Mostly Cloudy
5:14 PM 69.8 °F 55.4 °F 60% 29.90 in 10.0 mi SSE 13.8 mph 20.7 mph N/A   Scattered Clouds
5:34 PM 71.6 °F 55.4 °F 57% 29.89 in 10.0 mi SSE 11.5 mph 19.6 mph N/A   Scattered Clouds
5:54 PM 71.6 °F 55.4 °F 57% 29.88 in 10.0 mi SSE 17.3 mph 23.0 mph N/A   Scattered Clouds
6:14 PM 73.4 °F 53.6 °F 50% 29.88 in 10.0 mi SSE 18.4 mph 23.0 mph N/A   Scattered Clouds
6:34 PM 73.4 °F 51.8 °F 47% 29.87 in 10.0 mi SSE 16.1 mph 24.2 mph N/A   Scattered Clouds
6:54 PM 73.4 °F 51.8 °F 47% 29.86 in 10.0 mi SSE 15.0 mph 20.7 mph N/A   Scattered Clouds
7:14 PM 73.4 °F 53.6 °F 50% 29.86 in 10.0 mi SSE 11.5 mph 23.0 mph N/A   Clear
7:34 PM 73.4 °F 53.6 °F 50% 29.85 in 10.0 mi SSE 12.7 mph 18.4 mph N/A   Clear
7:54 PM 73.4 °F 53.6 °F 50% 29.85 in 10.0 mi SSE 13.8 mph 17.3 mph N/A   Clear
8:14 PM 73.4 °F 53.6 °F 50% 29.85 in 10.0 mi SSE 12.7 mph 18.4 mph N/A   Clear
8:34 PM 71.6 °F 51.8 °F 50% 29.86 in 10.0 mi SSE 11.5 mph 17.3 mph N/A   Clear
8:54 PM 71.6 °F 51.8 °F 50% 29.86 in 10.0 mi SE 10.4 mph - N/A   Clear
9:14 PM 71.6 °F 51.8 °F 50% 29.85 in 10.0 mi SE 12.7 mph - N/A   Clear
9:34 PM 69.8 °F 51.8 °F 53% 29.85 in 10.0 mi SE 13.8 mph 20.7 mph N/A   Clear
9:54 PM 68.0 °F 51.8 °F 56% 29.85 in 10.0 mi SE 11.5 mph - N/A   Clear
10:13 PM 68.0 °F 51.8 °F 56% 29.86 in 10.0 mi SE 12.7 mph - N/A   Clear
10:34 PM 69.8 °F 50.0 °F 49% 29.86 in 10.0 mi SE 12.7 mph - N/A   Clear
10:54 PM 68.0 °F 50.0 °F 52% 29.86 in 10.0 mi SE 13.8 mph 20.7 mph N/A   Clear
11:34 PM 68.0 °F 51.8 °F 56% 29.84 in 10.0 mi SE 16.1 mph - N/A   Clear
11:54 PM 66.2 °F 51.8 °F 60% 29.83 in 10.0 mi SE 15.0 mph 23.0 mph N/A   Clear